LUNAR PHOTON (52916 NORAD) Tracking and Keplerian Element Data

This shows tracking and keplerian element data for the satellite.

Feedback or suggestion? Click here.




ElementValue
Catalog52916
NameLUNAR PHOTON
Epoch Orbit39
Epoch Day184.14236111
Epoch Year2022
RAAN321.8334
Inclination39.0806
Eccentricity0.840541
Argument of Perigee344.499
Mean Anonmoly285.0037
Mean Motion1.02266752
Decay Rate-3.75E-06
L11 52916U 22070C 22184.14236111 -.00000375 00000+0 00000+0 0 9994
L22 52916 39.0806 321.8334 8405410 344.4990 285.0037 1.02266752 398

Live tracking and technical data element details for LUNAR PHOTON (NORAD 52916). LUNAR PHOTON can be tracked NOW for your location showing map with azimuth and elevation plus other details from your city location.

Track the satellite on the map from your city or location and see movement details for azimuth, elevation, latitude, longitude, range, height, and movement on the map or in text.







IsCatalogInMostPopularTable: catalog: 52916, numindb: 9
Update: records affected: 1



GetName: 52916 LUNAR PHOTON

Hit Count: updated at: Thu, 06 Oct 2022 03:41:10 GMT